| time (UTC) | temp F | wind direction | speed MPH | gust MPH | rain 1hr in | rain 24hr in | rain mn in | humidity % | barometer mb |
| 20260906101859 | 90 | 283 | 6.0 | 10.0 | 0.00 | 0.21 | 0.21 | 63 | 1007.5 |
| 20260906101702 | 90 | 272 | 5.0 | 10.0 | 0.00 | 0.21 | 0.21 | 63 | 1007.5 |
| 20260906101601 | 90 | 275 | 6.0 | 10.0 | 0.00 | 0.21 | 0.21 | 63 | 1007.5 |
| 20260906101504 | 90 | 280 | 6.0 | 10.0 | 0.00 | 0.21 | 0.21 | 62 | 1007.5 |
| 20260906101400 | 90 | 290 | 6.0 | 10.0 | 0.00 | 0.21 | 0.21 | 62 | 1007.5 |
| 20260906101302 | 90 | 263 | 6.0 | 10.0 | 0.00 | 0.21 | 0.21 | 61 | 1007.6 |
| 20260906101203 | 90 | 259 | 6.0 | 10.0 | 0.00 | 0.21 | 0.21 | 63 | 1007.6 |
| 20260906101100 | 90 | 250 | 5.0 | 9.0 | 0.00 | 0.21 | 0.21 | 63 | 1007.6 |
| 20260906101009 | 90 | 275 | 6.0 | 9.0 | 0.00 | 0.21 | 0.21 | 62 | 1007.6 |
| 20260906100903 | 90 | 269 | 5.0 | 9.0 | 0.00 | 0.21 | 0.21 | 62 | 1007.7 |
| 20260906100803 | 90 | 270 | 4.0 | 7.0 | 0.00 | 0.21 | 0.21 | 62 | 1007.7 |
| 20260906100659 | 90 | 267 | 4.0 | 8.0 | 0.00 | 0.21 | 0.21 | 62 | 1007.7 |
| 20260906100506 | 90 | 263 | 5.0 | 8.0 | 0.00 | 0.21 | 0.21 | 61 | 1007.7 |
| 20260906100402 | 90 | 281 | 4.0 | 8.0 | 0.00 | 0.21 | 0.21 | 61 | 1007.7 |
| 20260906100300 | 90 | 257 | 4.0 | 8.0 | 0.00 | 0.21 | 0.21 | 61 | 1007.7 |
| 20260906100159 | 90 | 284 | 4.0 | 8.0 | 0.00 | 0.21 | 0.21 | 62 | 1007.7 |
| 20260906100058 | 90 | 277 | 3.0 | 9.0 | 0.00 | 0.21 | 0.21 | 62 | 1007.7 |
| 20260906100005 | 90 | 269 | 3.0 | 9.0 | 0.00 | 0.21 | 0.21 | 62 | 1007.8 |
| 20260906095858 | 90 | 272 | 3.0 | 9.0 | 0.00 | 0.21 | 0.21 | 61 | 1007.8 |
| 20260906095758 | 90 | 258 | 4.0 | 9.0 | 0.00 | 0.21 | 0.21 | 61 | 1007.8 |
| 20260906095601 | 90 | 256 | 5.0 | 11.0 | 0.00 | 0.21 | 0.21 | 62 | 1007.9 |
| 20260906095503 | 90 | 284 | 3.0 | 11.0 | 0.00 | 0.21 | 0.21 | 62 | 1007.9 |
| 20260906095358 | 90 | 261 | 5.0 | 11.0 | 0.00 | 0.21 | 0.21 | 62 | 1008.0 |
| 20260906095203 | 90 | 286 | 5.0 | 11.0 | 0.00 | 0.21 | 0.21 | 62 | 1007.9 |
| 20260906095101 | 90 | 288 | 4.0 | 11.0 | 0.00 | 0.21 | 0.21 | 62 | 1007.9 |
| 20260906095003 | 90 | 287 | 6.0 | 11.0 | 0.00 | 0.21 | 0.21 | 61 | 1008.0 |
| 20260906094800 | 90 | 266 | 6.0 | 9.0 | 0.00 | 0.21 | 0.21 | 62 | 1007.9 |
| 20260906094604 | 90 | 295 | 4.0 | 8.0 | 0.00 | 0.21 | 0.21 | 63 | 1008.1 |
| 20260906094501 | 90 | 248 | 4.0 | 7.0 | 0.00 | 0.21 | 0.21 | 63 | 1008.0 |
| 20260906094404 | 90 | 253 | 4.0 | 7.0 | 0.00 | 0.21 | 0.21 | 64 | 1008.1 |
| 20260906094303 | 90 | 263 | 3.0 | 7.0 | 0.00 | 0.21 | 0.21 | 63 | 1008.0 |
| 20260906094210 | 90 | 262 | 3.0 | 6.0 | 0.00 | 0.21 | 0.21 | 62 | 1008.1 |
| 20260906094058 | 90 | 271 | 4.0 | 6.0 | 0.00 | 0.21 | 0.21 | 62 | 1008.1 |
| 20260906093858 | 90 | 268 | 3.0 | 6.0 | 0.00 | 0.21 | 0.21 | 63 | 1008.1 |
| 20260906093801 | 90 | 231 | 2.0 | 8.0 | 0.00 | 0.21 | 0.21 | 64 | 1008.1 |
| 20260906093658 | 90 | 258 | 2.0 | 8.0 | 0.00 | 0.21 | 0.21 | 64 | 1008.1 |
| 20260906093603 | 90 | 267 | 3.0 | 8.0 | 0.00 | 0.21 | 0.21 | 64 | 1008.1 |
| 20260906093504 | 90 | 277 | 4.0 | 8.0 | 0.00 | 0.21 | 0.21 | 63 | 1008.1 |
| 20260906093403 | 90 | 279 | 4.0 | 8.0 | 0.00 | 0.21 | 0.21 | 63 | 1008.1 |
| 20260906093303 | 89 | 279 | 4.0 | 9.0 | 0.00 | 0.21 | 0.21 | 63 | 1008.1 |
| 20260906093158 | 89 | 279 | 5.0 | 10.0 | 0.00 | 0.21 | 0.21 | 63 | 1008.0 |
| 20260906093103 | 89 | 277 | 5.0 | 10.0 | 0.00 | 0.21 | 0.21 | 63 | 1008.2 |
| 20260906093006 | 89 | 260 | 5.0 | 10.0 | 0.00 | 0.21 | 0.21 | 65 | 1008.2 |
| 20260906092904 | 89 | 242 | 3.0 | 10.0 | 0.00 | 0.21 | 0.21 | 66 | 1008.2 |
| 20260906092802 | 89 | 267 | 2.0 | 10.0 | 0.00 | 0.21 | 0.21 | 66 | 1008.2 |
| 20260906092658 | 89 | 235 | 3.0 | 10.0 | 0.00 | 0.21 | 0.21 | 65 | 1008.2 |
| 20260906092559 | 89 | 281 | 4.0 | 10.0 | 0.00 | 0.21 | 0.21 | 64 | 1008.2 |
| 20260906092513 | 89 | 296 | 4.0 | 10.0 | 0.00 | 0.21 | 0.21 | 65 | 1008.2 |
| 20260906092306 | 89 | 297 | 6.0 | 10.0 | 0.00 | 0.21 | 0.21 | 64 | 1008.1 |
| 20260906092201 | 89 | 237 | 4.0 | 9.0 | 0.00 | 0.21 | 0.21 | 64 | 1008.2 |
| 20260906092059 | 89 | 244 | 6.0 | 10.0 | 0.00 | 0.21 | 0.21 | 64 | 1008.3 |
| 20260906092004 | 89 | 252 | 6.0 | 10.0 | 0.00 | 0.21 | 0.21 | 64 | 1008.3 |
| 20260906091858 | 89 | 254 | 6.0 | 10.0 | 0.00 | 0.21 | 0.21 | 64 | 1008.3 |
| 20260906091758 | 89 | 263 | 7.0 | 10.0 | 0.00 | 0.21 | 0.21 | 64 | 1008.2 |
| 20260906091702 | 89 | 290 | 7.0 | 10.0 | 0.00 | 0.21 | 0.21 | 64 | 1008.2 |
| 20260906091608 | 89 | 277 | 5.0 | 10.0 | 0.00 | 0.21 | 0.21 | 66 | 1008.2 |
| 20260906091501 | 89 | 268 | 5.0 | 12.0 | 0.00 | 0.21 | 0.21 | 65 | 1008.3 |
| 20260906091359 | 89 | 294 | 6.0 | 12.0 | 0.00 | 0.21 | 0.21 | 65 | 1008.3 |
| 20260906091201 | 88 | 265 | 6.0 | 12.0 | 0.00 | 0.21 | 0.21 | 65 | 1008.3 |
| 20260906091005 | 88 | 295 | 6.0 | 14.0 | 0.00 | 0.21 | 0.21 | 65 | 1008.4 |
| 20260906090859 | 88 | 281 | 7.0 | 14.0 | 0.00 | 0.21 | 0.21 | 65 | 1008.4 |
| 20260906090658 | 88 | 283 | 8.0 | 14.0 | 0.00 | 0.21 | 0.21 | 65 | 1008.4 |
| 20260906090605 | 88 | 308 | 8.0 | 14.0 | 0.00 | 0.21 | 0.21 | 66 | 1008.4 |
| 20260906090505 | 88 | 288 | 7.0 | 14.0 | 0.00 | 0.21 | 0.21 | 66 | 1008.4 |
| 20260906090200 | 88 | 254 | 9.0 | 14.0 | 0.00 | 0.21 | 0.21 | 67 | 1008.5 |
| 20260906090104 | 88 | 279 | 8.0 | 13.0 | 0.00 | 0.21 | 0.21 | 67 | 1008.5 |
| 20260906090010 | 88 | 282 | 9.0 | 13.0 | 0.00 | 0.21 | 0.21 | 67 | 1008.5 |
| 20260906085903 | 88 | 261 | 7.0 | 13.0 | 0.00 | 0.21 | 0.21 | 68 | 1008.5 |
| 20260906085802 | 88 | 302 | 8.0 | 13.0 | 0.00 | 0.21 | 0.21 | 67 | 1008.5 |
| 20260906085558 | 88 | 287 | 9.0 | 13.0 | 0.00 | 0.21 | 0.21 | 67 | 1008.6 |
| 20260906085503 | 88 | 281 | 8.0 | 13.0 | 0.00 | 0.21 | 0.21 | 67 | 1008.6 |
| 20260906085258 | 88 | 263 | 7.0 | 13.0 | 0.00 | 0.21 | 0.21 | 68 | 1008.7 |
| 20260906085202 | 88 | 275 | 7.0 | 12.0 | 0.00 | 0.21 | 0.21 | 70 | 1008.6 |
| 20260906085104 | 88 | 213 | 8.0 | 12.0 | 0.00 | 0.21 | 0.21 | 69 | 1008.6 |
| 20260906085002 | 88 | 261 | 6.0 | 12.0 | 0.00 | 0.21 | 0.21 | 70 | 1008.6 |
| 20260906084858 | 88 | 242 | 5.0 | 12.0 | 0.00 | 0.21 | 0.21 | 70 | 1008.7 |
| 20260906084757 | 88 | 256 | 6.0 | 12.0 | 0.00 | 0.21 | 0.21 | 70 | 1008.7 |
| 20260906084703 | 88 | 257 | 7.0 | 12.0 | 0.00 | 0.21 | 0.21 | 70 | 1008.7 |
| 20260906084601 | 88 | 243 | 7.0 | 12.0 | 0.00 | 0.21 | 0.21 | 72 | 1008.8 |
| 20260906084506 | 88 | 279 | 6.0 | 12.0 | 0.00 | 0.21 | 0.21 | 73 | 1008.8 |
| 20260906084401 | 87 | 253 | 4.0 | 10.0 | 0.00 | 0.21 | 0.21 | 72 | 1008.7 |
| 20260906084201 | 87 | 227 | 4.0 | 11.0 | 0.00 | 0.21 | 0.21 | 72 | 1008.7 |
| 20260906084003 | 87 | 292 | 6.0 | 11.0 | 0.00 | 0.21 | 0.21 | 73 | 1008.8 |
| 20260906083701 | 87 | 251 | 6.0 | 11.0 | 0.00 | 0.21 | 0.21 | 73 | 1008.9 |
| 20260906083558 | 87 | 302 | 8.0 | 11.0 | 0.00 | 0.21 | 0.21 | 72 | 1008.9 |
| 20260906083507 | 87 | 257 | 8.0 | 11.0 | 0.00 | 0.21 | 0.21 | 73 | 1009.0 |
| 20260906083402 | 87 | 288 | 7.0 | 11.0 | 0.00 | 0.21 | 0.21 | 74 | 1008.9 |
| 20260906083259 | 87 | 267 | 6.0 | 12.0 | 0.00 | 0.21 | 0.21 | 73 | 1009.0 |
| 20260906083158 | 87 | 306 | 7.0 | 12.0 | 0.00 | 0.21 | 0.21 | 73 | 1009.0 |
| 20260906083103 | 87 | 287 | 8.0 | 12.0 | 0.00 | 0.21 | 0.21 | 73 | 1009.0 |
| 20260906083009 | 87 | 292 | 7.0 | 12.0 | 0.00 | 0.21 | 0.21 | 74 | 1009.0 |
| 20260906082857 | 87 | 278 | 6.0 | 12.0 | 0.00 | 0.21 | 0.21 | 74 | 1009.1 |
| 20260906082803 | 87 | 292 | 7.0 | 12.0 | 0.00 | 0.21 | 0.21 | 74 | 1009.0 |
| 20260906082701 | 87 | 296 | 7.0 | 12.0 | 0.00 | 0.21 | 0.21 | 75 | 1009.0 |
| 20260906082559 | 87 | 304 | 7.0 | 12.0 | 0.00 | 0.21 | 0.21 | 75 | 1009.0 |
| 20260906082503 | 87 | 308 | 8.0 | 12.0 | 0.00 | 0.21 | 0.21 | 75 | 1008.9 |
| 20260906082400 | 87 | 288 | 8.0 | 10.0 | 0.00 | 0.21 | 0.21 | 75 | 1009.0 |
| 20260906082258 | 87 | 286 | 6.0 | 10.0 | 0.00 | 0.21 | 0.21 | 76 | 1008.9 |
| 20260906082202 | 87 | 288 | 5.0 | 10.0 | 0.00 | 0.21 | 0.21 | 76 | 1009.0 |
| 20260906082102 | 86 | 257 | 5.0 | 10.0 | 0.00 | 0.21 | 0.21 | 75 | 1008.9 |
| 20260906081858 | 86 | 294 | 6.0 | 10.0 | 0.00 | 0.21 | 0.21 | 75 | 1009.0 |
| 20260906081803 | 86 | 271 | 6.0 | 10.0 | 0.00 | 0.21 | 0.21 | 75 | 1009.0 |
| 20260906081704 | 86 | 284 | 7.0 | 10.0 | 0.00 | 0.21 | 0.21 | 76 | 1009.0 |
| 20260906081602 | 86 | 281 | 7.0 | 10.0 | 0.00 | 0.21 | 0.21 | 76 | 1009.0 |
| 20260906081501 | 86 | 288 | 6.0 | 13.0 | 0.00 | 0.21 | 0.21 | 76 | 1009.0 |
| 20260906081358 | 86 | 277 | 5.0 | 13.0 | 0.00 | 0.21 | 0.21 | 76 | 1009.0 |
| 20260906081303 | 86 | 265 | 6.0 | 13.0 | 0.00 | 0.21 | 0.21 | 76 | 1009.1 |
| 20260906081202 | 86 | 270 | 6.0 | 13.0 | 0.00 | 0.21 | 0.21 | 76 | 1009.0 |
| 20260906081101 | 86 | 286 | 6.0 | 13.0 | 0.00 | 0.21 | 0.21 | 76 | 1009.2 |
| 20260906081002 | 86 | 340 | 6.0 | 13.0 | 0.00 | 0.21 | 0.21 | 76 | 1009.1 |
| 20260906080859 | 86 | 315 | 6.0 | 13.0 | 0.00 | 0.21 | 0.21 | 75 | 1009.2 |
| 20260906080801 | 86 | 305 | 8.0 | 13.0 | 0.00 | 0.21 | 0.21 | 76 | 1009.2 |
| 20260906080702 | 86 | 298 | 7.0 | 13.0 | 0.00 | 0.21 | 0.21 | 76 | 1009.2 |
| 20260906080504 | 86 | 302 | 5.0 | 12.0 | 0.00 | 0.21 | 0.21 | 76 | 1009.2 |
| 20260906080403 | 85 | 276 | 5.0 | 12.0 | 0.00 | 0.21 | 0.21 | 76 | 1009.2 |
| 20260906080203 | 85 | 296 | 4.0 | 12.0 | 0.00 | 0.21 | 0.21 | 77 | 1009.2 |
| 20260906080009 | 85 | 304 | 6.0 | 12.0 | 0.00 | 0.21 | 0.21 | 76 | 1009.2 |
| 20260906075858 | 85 | 309 | 8.0 | 12.0 | 0.00 | 0.21 | 0.21 | 76 | 1009.2 |
| 20260906075805 | 85 | 311 | 8.0 | 12.0 | 0.00 | 0.21 | 0.21 | 77 | 1009.2 |
| 20260906075700 | 85 | 263 | 6.0 | 9.0 | 0.00 | 0.21 | 0.21 | 77 | 1009.3 |
| 20260906075401 | 85 | 298 | 4.0 | 10.0 | 0.00 | 0.21 | 0.21 | 77 | 1009.4 |
| 20260906075301 | 85 | 305 | 6.0 | 10.0 | 0.00 | 0.21 | 0.21 | 76 | 1009.3 |
| 20260906075159 | 85 | 301 | 6.0 | 10.0 | 0.00 | 0.21 | 0.21 | 76 | 1009.3 |
| 20260906075101 | 85 | 280 | 6.0 | 10.0 | 0.00 | 0.21 | 0.21 | 77 | 1009.4 |
| 20260906074901 | 85 | 288 | 7.0 | 10.0 | 0.00 | 0.21 | 0.21 | 76 | 1009.5 |
| 20260906074803 | 85 | 283 | 7.0 | 10.0 | 0.00 | 0.21 | 0.21 | 76 | 1009.4 |
| 20260906074658 | 85 | 296 | 6.0 | 10.0 | 0.00 | 0.21 | 0.21 | 76 | 1009.4 |
| 20260906074558 | 85 | 319 | 6.0 | 10.0 | 0.00 | 0.21 | 0.21 | 76 | 1009.5 |
| 20260906074505 | 85 | 306 | 6.0 | 10.0 | 0.00 | 0.21 | 0.21 | 77 | 1009.5 |
| 20260906074401 | 85 | 273 | 6.0 | 10.0 | 0.00 | 0.21 | 0.21 | 76 | 1009.5 |
| 20260906074259 | 85 | 298 | 6.0 | 10.0 | 0.00 | 0.21 | 0.21 | 77 | 1009.5 |
| 20260906074203 | 85 | 309 | 5.0 | 10.0 | 0.00 | 0.21 | 0.21 | 77 | 1009.6 |
| 20260906074102 | 85 | 311 | 5.0 | 8.0 | 0.00 | 0.21 | 0.21 | 76 | 1009.5 |
| 20260906074004 | 85 | 277 | 6.0 | 8.0 | 0.00 | 0.21 | 0.21 | 76 | 1009.5 |
| 20260906073901 | 85 | 277 | 6.0 | 8.0 | 0.00 | 0.21 | 0.21 | 76 | 1009.5 |
| 20260906073658 | 85 | 295 | 3.0 | 8.0 | 0.00 | 0.21 | 0.21 | 77 | 1009.5 |
| 20260906073602 | 85 | 294 | 4.0 | 8.0 | 0.00 | 0.21 | 0.21 | 76 | 1009.7 |
| 20260906073505 | 85 | 237 | 4.0 | 8.0 | 0.00 | 0.21 | 0.21 | 77 | 1009.6 |
| 20260906073405 | 85 | 265 | 3.0 | 7.0 | 0.00 | 0.21 | 0.21 | 77 | 1009.6 |
| 20260906073259 | 85 | 257 | 4.0 | 7.0 | 0.00 | 0.21 | 0.21 | 77 | 1009.6 |
| 20260906073103 | 85 | 299 | 4.0 | 7.0 | 0.00 | 0.21 | 0.21 | 76 | 1009.7 |
| 20260906072857 | 85 | 295 | 4.0 | 6.0 | 0.00 | 0.21 | 0.21 | 77 | 1009.7 |
| 20260906072758 | 85 | 303 | 3.0 | 4.0 | 0.00 | 0.21 | 0.21 | 77 | 1009.7 |
| 20260906072702 | 85 | 317 | 2.0 | 4.0 | 0.00 | 0.21 | 0.21 | 77 | 1009.7 |
| 20260906072506 | 85 | 315 | 3.0 | 8.0 | 0.00 | 0.21 | 0.21 | 77 | 1009.6 |
| 20260906072305 | 85 | 333 | 2.0 | 8.0 | 0.00 | 0.21 | 0.21 | 77 | 1009.6 |
| 20260906072201 | 85 | 307 | 2.0 | 8.0 | 0.00 | 0.21 | 0.21 | 77 | 1009.6 |
| 20260906072059 | 85 | 329 | 2.0 | 8.0 | 0.00 | 0.21 | 0.21 | 77 | 1009.6 |
| 20260906072007 | 85 | 317 | 2.0 | 8.0 | 0.00 | 0.21 | 0.21 | 77 | 1009.6 |
| 20260906071904 | 84 | 329 | 4.0 | 8.0 | 0.00 | 0.21 | 0.21 | 77 | 1009.7 |
| 20260906071802 | 84 | 278 | 6.0 | 8.0 | 0.00 | 0.21 | 0.21 | 77 | 1009.7 |
| 20260906071657 | 85 | 298 | 5.0 | 8.0 | 0.00 | 0.21 | 0.21 | 77 | 1009.8 |
| 20260906071558 | 85 | 298 | 3.0 | 8.0 | 0.00 | 0.21 | 0.21 | 78 | 1009.7 |
| 20260906071505 | 85 | 309 | 2.0 | 6.0 | 0.00 | 0.21 | 0.21 | 78 | 1009.8 |
| 20260906071402 | 84 | 303 | 2.0 | 6.0 | 0.00 | 0.21 | 0.21 | 78 | 1009.8 |
| 20260906071202 | 84 | 320 | 3.0 | 6.0 | 0.00 | 0.21 | 0.21 | 79 | 1009.9 |
| 20260906070904 | 84 | 289 | 3.0 | 7.0 | 0.00 | 0.21 | 0.21 | 79 | 1009.9 |
| 20260906070800 | 84 | 319 | 3.0 | 7.0 | 0.00 | 0.21 | 0.21 | 79 | 1009.8 |
| 20260906070659 | 83 | 283 | 3.0 | 6.0 | 0.00 | 0.21 | 0.21 | 79 | 1009.9 |
| 20260906070558 | 83 | 17 | 3.0 | 6.0 | 0.00 | 0.21 | 0.21 | 79 | 1010.0 |
| 20260906070507 | 83 | 342 | 3.0 | 6.0 | 0.00 | 0.21 | 0.21 | 79 | 1010.0 |
| 20260906070359 | 83 | 355 | 3.0 | 6.0 | 0.00 | 0.21 | 0.21 | 80 | 1009.9 |
| 20260906070301 | 83 | 281 | 4.0 | 6.0 | 0.00 | 0.21 | 0.21 | 80 | 1009.9 |
| 20260906070202 | 83 | 309 | 4.0 | 6.0 | 0.00 | 0.21 | 0.21 | 80 | 1009.9 |
| 20260906065902 | 83 | 309 | 4.0 | 6.0 | 0.00 | 0.21 | 0.21 | 80 | 1010.0 |
| 20260906065601 | 83 | 360 | 3.0 | 6.0 | 0.00 | 0.21 | 0.21 | 80 | 1010.0 |
| 20260906065505 | 83 | 338 | 3.0 | 6.0 | 0.00 | 0.21 | 0.21 | 80 | 1010.1 |
| 20260906065359 | 83 | 350 | 4.0 | 6.0 | 0.00 | 0.21 | 0.21 | 80 | 1010.1 |
| 20260906065305 | 83 | 333 | 3.0 | 6.0 | 0.00 | 0.21 | 0.21 | 80 | 1010.1 |
| 20260906065202 | 83 | 312 | 3.0 | 6.0 | 0.00 | 0.21 | 0.21 | 81 | 1010.1 |
| 20260906065058 | 82 | 334 | 3.0 | 5.0 | 0.00 | 0.21 | 0.21 | 81 | 1010.2 |
| 20260906065006 | 82 | 332 | 3.0 | 5.0 | 0.00 | 0.21 | 0.21 | 81 | 1010.3 |
| 20260906064904 | 82 | 339 | 2.0 | 5.0 | 0.00 | 0.21 | 0.21 | 81 | 1010.2 |
| 20260906064802 | 82 | 348 | 2.0 | 5.0 | 0.00 | 0.21 | 0.21 | 81 | 1010.3 |
| 20260906064557 | 81 | 294 | 2.0 | 5.0 | 0.00 | 0.21 | 0.21 | 80 | 1010.3 |
| 20260906064503 | 81 | 13 | 3.0 | 6.0 | 0.00 | 0.21 | 0.21 | 80 | 1010.3 |
| 20260906064401 | 81 | 18 | 3.0 | 6.0 | 0.00 | 0.21 | 0.21 | 80 | 1010.4 |
| 20260906064257 | 81 | 30 | 3.0 | 6.0 | 0.00 | 0.21 | 0.21 | 80 | 1010.4 |
| 20260906064200 | 81 | 30 | 3.0 | 6.0 | 0.00 | 0.21 | 0.21 | 81 | 1010.4 |
| 20260906064105 | 81 | 5 | 3.0 | 6.0 | 0.00 | 0.21 | 0.21 | 81 | 1010.4 |
| 20260906064006 | 81 | 345 | 2.0 | 6.0 | 0.00 | 0.21 | 0.21 | 80 | 1010.5 |
| 20260906063858 | 81 | 341 | 2.0 | 6.0 | 0.00 | 0.21 | 0.21 | 80 | 1010.4 |
| 20260906063802 | 81 | 355 | 3.0 | 6.0 | 0.00 | 0.21 | 0.21 | 80 | 1010.4 |
| 20260906063702 | 81 | 12 | 4.0 | 6.0 | 0.00 | 0.21 | 0.21 | 80 | 1010.4 |
| 20260906063600 | 81 | 341 | 5.0 | 8.0 | 0.00 | 0.21 | 0.21 | 80 | 1010.4 |
| 20260906063505 | 81 | 336 | 3.0 | 8.0 | 0.00 | 0.21 | 0.21 | 80 | 1010.5 |
| 20260906063400 | 81 | 322 | 3.0 | 8.0 | 0.00 | 0.21 | 0.21 | 80 | 1010.4 |
| 20260906063300 | 80 | 355 | 4.0 | 8.0 | 0.00 | 0.21 | 0.21 | 80 | 1010.4 |
| 20260906063204 | 80 | 360 | 4.0 | 8.0 | 0.00 | 0.21 | 0.21 | 80 | 1010.5 |
| 20260906063100 | 80 | 27 | 3.0 | 8.0 | 0.00 | 0.21 | 0.21 | 81 | 1010.4 |
| 20260906063001 | 80 | 13 | 3.0 | 8.0 | 0.00 | 0.21 | 0.21 | 81 | 1010.4 |
| 20260906062902 | 80 | 24 | 4.0 | 8.0 | 0.00 | 0.21 | 0.21 | 81 | 1010.5 |
| 20260906062758 | 80 | 26 | 5.0 | 8.0 | 0.00 | 0.21 | 0.21 | 81 | 1010.5 |
| 20260906062657 | 80 | 24 | 4.0 | 10.0 | 0.00 | 0.21 | 0.21 | 81 | 1010.6 |
| 20260906062604 | 80 | 5 | 4.0 | 10.0 | 0.00 | 0.21 | 0.21 | 81 | 1010.5 |
| 20260906062504 | 80 | 346 | 4.0 | 10.0 | 0.00 | 0.21 | 0.21 | 82 | 1010.7 |
| 20260906062401 | 80 | 35 | 3.0 | 10.0 | 0.00 | 0.21 | 0.21 | 82 | 1010.7 |
| 20260906062325 | 80 | 5 | 3.0 | 10.0 | 0.00 | 0.21 | 0.21 | 82 | 1010.7 |
| 20260906062213 | 80 | 350 | 4.0 | 10.0 | 0.00 | 0.21 | 0.21 | 82 | 1010.7 |
| 20260906062101 | 80 | 342 | 4.0 | 10.0 | 0.00 | 0.21 | 0.21 | 82 | 1010.8 |
| 20260906062002 | 80 | 336 | 5.0 | 10.0 | 0.00 | 0.21 | 0.21 | 82 | 1010.9 |
| 20260906061856 | 80 | 333 | 4.0 | 10.0 | 0.00 | 0.21 | 0.21 | 82 | 1010.8 |
| 20260906061802 | 80 | 323 | 4.0 | 9.0 | 0.00 | 0.21 | 0.21 | 82 | 1011.0 |
| 20260906061659 | 80 | 360 | 4.0 | 9.0 | 0.00 | 0.21 | 0.21 | 82 | 1010.9 |
| 20260906061602 | 80 | 30 | 2.0 | 8.0 | 0.00 | 0.21 | 0.21 | 82 | 1010.9 |
| 20260906061504 | 80 | 9 | 3.0 | 5.0 | 0.00 | 0.21 | 0.21 | 82 | 1010.9 |
| 20260906061400 | 80 | 29 | 2.0 | 5.0 | 0.00 | 0.21 | 0.21 | 83 | 1011.0 |
| 20260906061302 | 80 | 9 | 1.0 | 5.0 | 0.00 | 0.21 | 0.21 | 83 | 1010.9 |
| 20260906061201 | 80 | 54 | 2.0 | 5.0 | 0.00 | 0.21 | 0.21 | 83 | 1010.9 |
| 20260906061058 | 80 | 339 | 3.0 | 5.0 | 0.00 | 0.21 | 0.21 | 83 | 1011.0 |
| 20260906060901 | 80 | 331 | 4.0 | 5.0 | 0.00 | 0.21 | 0.21 | 83 | 1010.9 |
| 20260906060802 | 80 | 333 | 4.0 | 5.0 | 0.00 | 0.21 | 0.21 | 83 | 1010.9 |
| 20260906060702 | 80 | 311 | 3.0 | 5.0 | 0.00 | 0.21 | 0.21 | 83 | 1010.9 |
| 20260906060602 | 80 | 344 | 3.0 | 5.0 | 0.00 | 0.21 | 0.21 | 84 | 1010.8 |
| 20260906060511 | 80 | 346 | 2.0 | 4.0 | 0.00 | 0.21 | 0.21 | 84 | 1010.8 |
| 20260906021006 | 74 | 240 | 4.0 | 9.0 | 0.02 | 0.20 | 0.20 | 88 | 1010.5 |
| 20260906020803 | 74 | 275 | 4.0 | 9.0 | 0.02 | 0.20 | 0.20 | 87 | 1010.8 |
| 20260906020705 | 74 | 276 | 5.0 | 9.0 | 0.02 | 0.20 | 0.20 | 87 | 1010.8 |
| 20260906020502 | 74 | 286 | 4.0 | 7.0 | 0.02 | 0.20 | 0.20 | 87 | 1010.9 |
| 20260906020405 | 74 | 261 | 4.0 | 7.0 | 0.02 | 0.20 | 0.20 | 87 | 1010.9 |
| 20260906020301 | 74 | 281 | 4.0 | 7.0 | 0.02 | 0.20 | 0.20 | 87 | 1010.9 |
| 20260906020202 | 74 | 273 | 4.0 | 7.0 | 0.02 | 0.20 | 0.20 | 87 | 1010.9 |
| 20260906020105 | 74 | 257 | 4.0 | 6.0 | 0.02 | 0.20 | 0.20 | 87 | 1010.8 |
| 20260906020009 | 74 | 288 | 5.0 | 7.0 | 0.02 | 0.20 | 0.20 | 88 | 1010.9 |
| 20260906015904 | 74 | 293 | 5.0 | 6.0 | 0.02 | 0.20 | 0.20 | 88 | 1010.9 |
| 20260906015801 | 74 | 275 | 4.0 | 6.0 | 0.02 | 0.20 | 0.20 | 88 | 1010.9 |
| 20260906015704 | 74 | 290 | 3.0 | 9.0 | 0.02 | 0.20 | 0.20 | 88 | 1010.9 |
| 20260906015604 | 74 | 319 | 2.0 | 9.0 | 0.02 | 0.20 | 0.20 | 88 | 1011.0 |
| 20260906015509 | 74 | 296 | 2.0 | 10.0 | 0.02 | 0.20 | 0.20 | 88 | 1011.0 |
| 20260906015405 | 74 | 279 | 1.0 | 10.0 | 0.02 | 0.20 | 0.20 | 88 | 1011.0 |
| 20260906015158 | 74 | 301 | 3.0 | 10.0 | 0.02 | 0.20 | 0.20 | 87 | 1011.0 |
| 20260906015103 | 74 | 269 | 5.0 | 10.0 | 0.03 | 0.20 | 0.20 | 87 | 1010.9 |
| 20260906015007 | 74 | 258 | 6.0 | 10.0 | 0.05 | 0.20 | 0.20 | 87 | 1010.9 |
| 20260906014905 | 74 | 269 | 5.0 | 10.0 | 0.06 | 0.20 | 0.20 | 87 | 1010.9 |
| 20260906014804 | 74 | 287 | 5.0 | 10.0 | 0.08 | 0.20 | 0.20 | 87 | 1010.9 |
| 20260906014703 | 74 | 270 | 5.0 | 11.0 | 0.11 | 0.20 | 0.20 | 87 | 1010.9 |
| 20260906014602 | 74 | 309 | 5.0 | 11.0 | 0.13 | 0.19 | 0.19 | 87 | 1010.9 |
| 20260906014503 | 74 | 310 | 6.0 | 11.0 | 0.14 | 0.19 | 0.19 | 88 | 1010.9 |
| 20260906014403 | 74 | 296 | 6.0 | 11.0 | 0.15 | 0.19 | 0.19 | 88 | 1010.9 |
| 20260906014300 | 74 | 294 | 5.0 | 11.0 | 0.17 | 0.19 | 0.19 | 88 | 1010.9 |
| 20260906014204 | 74 | 271 | 6.0 | 12.0 | 0.18 | 0.19 | 0.19 | 88 | 1010.9 |
| 20260906014003 | 74 | 286 | 7.0 | 12.0 | 0.19 | 0.19 | 0.19 | 88 | 1010.9 |
| 20260906013902 | 74 | 277 | 7.0 | 12.0 | 0.19 | 0.19 | 0.19 | 88 | 1010.8 |
| 20260906013803 | 74 | 289 | 5.0 | 12.0 | 0.19 | 0.19 | 0.19 | 88 | 1010.9 |
| 20260906013702 | 74 | 296 | 5.0 | 12.0 | 0.19 | 0.19 | 0.19 | 88 | 1010.8 |
| 20260906013601 | 74 | 277 | 7.0 | 12.0 | 0.19 | 0.19 | 0.19 | 88 | 1010.9 |
| 20260906013508 | 74 | 277 | 8.0 | 12.0 | 0.19 | 0.19 | 0.19 | 88 | 1010.8 |
| 20260906013304 | 74 | 286 | 8.0 | 12.0 | 0.19 | 0.19 | 0.19 | 88 | 1010.8 |
| 20260906013205 | 74 | 304 | 7.0 | 11.0 | 0.19 | 0.19 | 0.19 | 88 | 1010.9 |
| 20260906013102 | 74 | 300 | 7.0 | 11.0 | 0.19 | 0.19 | 0.19 | 88 | 1010.8 |
| 20260906013008 | 74 | 292 | 6.0 | 11.0 | 0.19 | 0.19 | 0.19 | 88 | 1010.8 |
| 20260906012901 | 74 | 290 | 6.0 | 11.0 | 0.19 | 0.19 | 0.19 | 88 | 1010.8 |
| 20260906012705 | 74 | 298 | 6.0 | 11.0 | 0.19 | 0.19 | 0.19 | 88 | 1010.8 |
| 20260906012603 | 74 | 303 | 4.0 | 11.0 | 0.19 | 0.19 | 0.19 | 88 | 1010.7 |
| 20260906012506 | 74 | 300 | 5.0 | 14.0 | 0.19 | 0.19 | 0.19 | 88 | 1010.7 |
| 20260906012400 | 74 | 273 | 7.0 | 14.0 | 0.19 | 0.19 | 0.19 | 88 | 1010.6 |
| 20260906012300 | 74 | 296 | 7.0 | 16.0 | 0.19 | 0.19 | 0.19 | 88 | 1010.6 |
| 20260906012201 | 74 | 309 | 6.0 | 16.0 | 0.19 | 0.19 | 0.19 | 88 | 1010.5 |
| 20260906012103 | 74 | 308 | 7.0 | 16.0 | 0.19 | 0.19 | 0.19 | 88 | 1010.6 |
| 20260906012007 | 74 | 308 | 8.0 | 16.0 | 0.19 | 0.19 | 0.19 | 88 | 1010.5 |
| 20260906011903 | 74 | 274 | 8.0 | 16.0 | 0.19 | 0.19 | 0.19 | 88 | 1010.5 |
| 20260906011806 | 74 | 268 | 8.0 | 16.0 | 0.19 | 0.19 | 0.19 | 88 | 1010.4 |
| 20260906011705 | 74 | 295 | 10.0 | 16.0 | 0.19 | 0.19 | 0.19 | 88 | 1010.3 |
| 20260906011602 | 74 | 252 | 11.0 | 16.0 | 0.19 | 0.19 | 0.19 | 88 | 1010.3 |
| 20260906011502 | 74 | 298 | 11.0 | 16.0 | 0.19 | 0.19 | 0.19 | 88 | 1010.3 |
| 20260906011403 | 74 | 272 | 10.0 | 14.0 | 0.19 | 0.19 | 0.19 | 88 | 1010.3 |
| 20260906011301 | 74 | 294 | 10.0 | 17.0 | 0.19 | 0.19 | 0.19 | 88 | 1010.3 |
| 20260906011203 | 74 | 269 | 10.0 | 17.0 | 0.19 | 0.19 | 0.19 | 88 | 1010.3 |
| 20260906011101 | 74 | 280 | 8.0 | 18.0 | 0.19 | 0.19 | 0.19 | 88 | 1010.2 |
| 20260906011008 | 74 | 303 | 9.0 | 18.0 | 0.19 | 0.19 | 0.19 | 88 | 1010.3 |
| 20260906010800 | 74 | 276 | 9.0 | 18.0 | 0.19 | 0.19 | 0.19 | 88 | 1010.3 |
| 20260906010704 | 74 | 260 | 11.0 | 19.0 | 0.19 | 0.19 | 0.19 | 88 | 1010.3 |
| 20260906010602 | 74 | 254 | 11.0 | 19.0 | 0.19 | 0.19 | 0.19 | 88 | 1010.1 |
| 20260906010501 | 74 | 257 | 10.0 | 19.0 | 0.19 | 0.19 | 0.19 | 88 | 1010.2 |
| 20260906010358 | 74 | 308 | 10.0 | 19.0 | 0.19 | 0.19 | 0.19 | 88 | 1010.1 |
| 20260906010302 | 74 | 298 | 10.0 | 19.0 | 0.19 | 0.19 | 0.19 | 88 | 1010.0 |
| 20260906010205 | 74 | 277 | 10.0 | 19.0 | 0.19 | 0.19 | 0.19 | 88 | 1010.0 |
| 20260906010006 | 74 | 249 | 11.0 | 19.0 | 0.19 | 0.19 | 0.19 | 88 | 1010.0 |
| 20260906005756 | 74 | 293 | 12.0 | 19.0 | 0.19 | 0.19 | 0.19 | 88 | 1009.9 |
| 20260906005659 | 74 | 271 | 12.0 | 23.0 | 0.19 | 0.19 | 0.19 | 88 | 1010.0 |
| 20260906005606 | 74 | 296 | 10.0 | 25.0 | 0.19 | 0.19 | 0.19 | 88 | 1010.1 |
| 20260906005507 | 74 | 289 | 11.0 | 25.0 | 0.19 | 0.19 | 0.19 | 88 | 1010.1 |
| 20260906005402 | 74 | 300 | 12.0 | 25.0 | 0.19 | 0.19 | 0.19 | 88 | 1010.1 |
| 20260906005256 | 74 | 254 | 12.0 | 25.0 | 0.18 | 0.18 | 0.18 | 88 | 1010.1 |
| 20260906005155 | 74 | 267 | 12.0 | 25.0 | 0.18 | 0.18 | 0.18 | 88 | 1010.2 |
| 20260906005006 | 75 | 266 | 16.0 | 25.0 | 0.16 | 0.16 | 0.16 | 87 | 1010.0 |
| 20260906004857 | 75 | 278 | 17.0 | 25.0 | 0.13 | 0.13 | 0.13 | 87 | 1009.9 |
| 20260906004805 | 75 | 299 | 15.0 | 25.0 | 0.12 | 0.12 | 0.12 | 87 | 1009.8 |
| 20260906004705 | 75 | 280 | 15.0 | 26.0 | 0.09 | 0.09 | 0.09 | 87 | 1009.8 |
| 20260906004600 | 75 | 294 | 14.0 | 24.0 | 0.06 | 0.06 | 0.06 | 88 | 1009.7 |
| 20260906004456 | 75 | 281 | 12.0 | 25.0 | 0.05 | 0.05 | 0.05 | 88 | 1009.6 |
| 20260906004357 | 76 | 266 | 10.0 | 18.0 | 0.03 | 0.03 | 0.03 | 88 | 1009.6 |
| 20260906004154 | 76 | 277 | 11.0 | 15.0 | 0.01 | 0.01 | 0.01 | 88 | 1009.6 |
| 20260906004055 | 76 | 276 | 9.0 | 15.0 | 0.00 | 0.00 | 0.00 | 88 | 1009.6 |
| 20260906004012 | 76 | 268 | 8.0 | 17.0 | 0.00 | 0.00 | 0.00 | 88 | 1009.5 |
| 20260906003902 | 76 | 285 | 10.0 | 19.0 | 0.00 | 0.00 | 0.00 | 88 | 1009.3 |
| 20260906003756 | 76 | 271 | 11.0 | 19.0 | 0.00 | 0.00 | 0.00 | 88 | 1009.3 |
| 20260906003700 | 76 | 266 | 11.0 | 19.0 | 0.00 | 0.00 | 0.00 | 88 | 1009.3 |
| 20260906003558 | 76 | 290 | 9.0 | 19.0 | 0.00 | 0.00 | 0.00 | 88 | 1009.2 |
| 20260906003458 | 76 | 301 | 8.0 | 19.0 | 0.00 | 0.00 | 0.00 | 88 | 1009.2 |
| 20260906003255 | 76 | 284 | 11.0 | 19.0 | 0.00 | 0.00 | 0.00 | 88 | 1009.1 |
| 20260906003158 | 76 | 308 | 14.0 | 19.0 | 0.00 | 0.00 | 0.00 | 88 | 1009.0 |
| 20260906003058 | 76 | 286 | 12.0 | 17.0 | 0.00 | 0.00 | 0.00 | 88 | 1009.0 |
| 20260906002900 | 76 | 267 | 10.0 | 17.0 | 0.00 | 0.00 | 0.00 | 88 | 1009.0 |
| 20260906002801 | 76 | 231 | 12.0 | 17.0 | 0.00 | 0.00 | 0.00 | 88 | 1009.0 |
| 20260906002700 | 76 | 281 | 12.0 | 17.0 | 0.00 | 0.00 | 0.00 | 88 | 1009.0 |
| 20260906002601 | 76 | 326 | 10.0 | 17.0 | 0.00 | 0.00 | 0.00 | 88 | 1008.9 |
| 20260906002501 | 76 | 289 | 9.0 | 17.0 | 0.00 | 0.00 | 0.00 | 88 | 1009.0 |
| 20260906002400 | 76 | 299 | 11.0 | 17.0 | 0.00 | 0.00 | 0.00 | 88 | 1008.9 |
| 20260906002301 | 77 | 264 | 12.0 | 17.0 | 0.00 | 0.00 | 0.00 | 88 | 1008.9 |
| 20260906002203 | 77 | 277 | 10.0 | 17.0 | 0.00 | 0.00 | 0.00 | 88 | 1008.8 |
| 20260906002101 | 77 | 269 | 10.0 | 17.0 | 0.00 | 0.00 | 0.00 | 88 | 1008.9 |
| 20260906001957 | 77 | 268 | 11.0 | 17.0 | 0.00 | 0.00 | 0.00 | 88 | 1008.8 |
| 20260906001855 | 77 | 279 | 10.0 | 16.0 | 0.00 | 0.00 | 0.00 | 88 | 1008.8 |
| 20260906001654 | 78 | 241 | 8.0 | 17.0 | 0.00 | 0.00 | 0.00 | 89 | 1008.7 |
| 20260906001608 | 78 | 249 | 7.0 | 17.0 | 0.00 | 0.00 | 0.00 | 89 | 1008.7 |
| 20260905232202 | 81 | 74 | 1.0 | 3.0 | 0.00 | 0.00 | 0.00 | 92 | 1007.4 |
| 20260905232058 | 81 | 87 | 1.0 | 3.0 | 0.00 | 0.00 | 0.00 | 91 | 1007.4 |
| 20260905232003 | 81 | 130 | 2.0 | 3.0 | 0.00 | 0.00 | 0.00 | 91 | 1007.4 |
| 20260905231802 | 82 | 90 | 2.0 | 3.0 | 0.00 | 0.00 | 0.00 | 91 | 1007.4 |
| 20260905231559 | 82 | 69 | 1.0 | 4.0 | 0.00 | 0.00 | 0.00 | 92 | 1007.4 |
| 20260905231503 | 81 | 103 | 1.0 | 4.0 | 0.00 | 0.00 | 0.00 | 91 | 1007.3 |
| 20260905231258 | 82 | 55 | 1.0 | 4.0 | 0.00 | 0.00 | 0.00 | 91 | 1007.2 |
| 20260905231202 | 81 | 81 | 1.0 | 4.0 | 0.00 | 0.00 | 0.00 | 91 | 1007.3 |
| 20260905231006 | 81 | 78 | 2.0 | 4.0 | 0.00 | 0.00 | 0.00 | 91 | 1007.2 |
| 20260905230759 | 82 | 98 | 2.0 | 4.0 | 0.00 | 0.00 | 0.00 | 91 | 1007.2 |
| 20260905230707 | 82 | 60 | 2.0 | 4.0 | 0.00 | 0.00 | 0.00 | 91 | 1007.2 |
| 20260905230602 | 82 | 91 | 2.0 | 4.0 | 0.00 | 0.00 | 0.00 | 91 | 1007.2 |
| 20260905230505 | 82 | 98 | 2.0 | 4.0 | 0.00 | 0.00 | 0.00 | 91 | 1007.3 |
| 20260905230400 | 82 | 106 | 2.0 | 4.0 | 0.00 | 0.00 | 0.00 | 91 | 1007.2 |
| 20260905230304 | 82 | 62 | 2.0 | 4.0 | 0.00 | 0.00 | 0.00 | 91 | 1007.2 |
| 20260905230201 | 82 | 70 | 2.0 | 4.0 | 0.00 | 0.00 | 0.00 | 91 | 1007.3 |
| 20260905230104 | 82 | 107 | 2.0 | 4.0 | 0.00 | 0.00 | 0.00 | 91 | 1007.3 |
| 20260905230012 | 82 | 86 | 2.0 | 4.0 | 0.00 | 0.00 | 0.00 | 91 | 1007.3 |
| 20260905225704 | 82 | 77 | 2.0 | 4.0 | 0.00 | 0.00 | 0.00 | 91 | 1007.2 |
| 20260905225559 | 82 | 34 | 2.0 | 4.0 | 0.00 | 0.00 | 0.00 | 91 | 1007.2 |
| 20260905225504 | 82 | 78 | 2.0 | 4.0 | 0.00 | 0.00 | 0.00 | 91 | 1007.2 |
| 20260905225402 | 82 | 65 | 2.0 | 4.0 | 0.00 | 0.00 | 0.00 | 91 | 1007.2 |
| 20260905225305 | 82 | 93 | 2.0 | 4.0 | 0.00 | 0.00 | 0.00 | 91 | 1007.2 |
| 20260905225202 | 82 | 103 | 2.0 | 4.0 | 0.00 | 0.00 | 0.00 | 91 | 1007.2 |
| 20260905225104 | 82 | 83 | 2.0 | 4.0 | 0.00 | 0.00 | 0.00 | 91 | 1007.2 |
| 20260905225006 | 82 | 103 | 2.0 | 4.0 | 0.00 | 0.00 | 0.00 | 91 | 1007.2 |
| 20260905224903 | 82 | 94 | 2.0 | 4.0 | 0.00 | 0.00 | 0.00 | 91 | 1007.2 |
| 20260905224704 | 82 | 99 | 2.0 | 4.0 | 0.00 | 0.00 | 0.00 | 91 | 1007.1 |
| 20260905224602 | 82 | 96 | 2.0 | 4.0 | 0.00 | 0.00 | 0.00 | 91 | 1007.1 |
| 20260905224514 | 82 | 96 | 2.0 | 4.0 | 0.00 | 0.00 | 0.00 | 91 | 1007.1 |
| 20260905224232 | 82 | 132 | 3.0 | 4.0 | 0.00 | 0.00 | 0.00 | 91 | 1007.1 |
| 20260905224103 | 82 | 90 | 2.0 | 4.0 | 0.00 | 0.00 | 0.00 | 91 | 1007.1 |
| 20260905224004 | 82 | 96 | 2.0 | 3.0 | 0.00 | 0.00 | 0.00 | 91 | 1007.2 |
| 20260905223900 | 82 | 76 | 2.0 | 4.0 | 0.00 | 0.00 | 0.00 | 91 | 1007.2 |
| 20260905223800 | 82 | 96 | 1.0 | 4.0 | 0.00 | 0.00 | 0.00 | 91 | 1007.2 |
| 20260905223702 | 82 | 92 | 1.0 | 4.0 | 0.00 | 0.00 | 0.00 | 91 | 1007.2 |
| 20260905223559 | 82 | 67 | 1.0 | 4.0 | 0.00 | 0.00 | 0.00 | 91 | 1007.2 |
| 20260905223404 | 82 | 103 | 2.0 | 4.0 | 0.00 | 0.00 | 0.00 | 91 | 1007.3 |
| 20260905223305 | 82 | 87 | 1.0 | 4.0 | 0.00 | 0.00 | 0.00 | 91 | 1007.3 |
| 20260905223205 | 82 | 74 | 2.0 | 4.0 | 0.00 | 0.00 | 0.00 | 91 | 1007.3 |
| 20260905223104 | 82 | 107 | 2.0 | 4.0 | 0.00 | 0.00 | 0.00 | 91 | 1007.4 |
| 20260905223008 | 82 | 86 | 2.0 | 4.0 | 0.00 | 0.00 | 0.00 | 91 | 1007.5 |
| 20260905222905 | 82 | 90 | 2.0 | 3.0 | 0.00 | 0.00 | 0.00 | 91 | 1007.5 |
| 20260905222800 | 82 | 89 | 1.0 | 3.0 | 0.00 | 0.00 | 0.00 | 91 | 1007.6 |
| 20260905222703 | 82 | 78 | 2.0 | 3.0 | 0.00 | 0.00 | 0.00 | 92 | 1007.6 |
| 20260905222600 | 82 | 119 | 1.0 | 3.0 | 0.00 | 0.00 | 0.00 | 92 | 1007.6 |
| 20260905222508 | 82 | 57 | 1.0 | 3.0 | 0.00 | 0.00 | 0.00 | 92 | 1007.6 |
| 20260905222405 | 82 | 114 | 1.0 | 4.0 | 0.00 | 0.00 | 0.00 | 92 | 1007.6 |
| 20260905222200 | 82 | 133 | 1.0 | 6.0 | 0.00 | 0.00 | 0.00 | 91 | 1007.6 |
| 20260905222103 | 82 | 133 | 2.0 | 6.0 | 0.00 | 0.00 | 0.00 | 91 | 1007.6 |
| 20260905222007 | 82 | 111 | 2.0 | 6.0 | 0.00 | 0.00 | 0.00 | 91 | 1007.6 |
| 20260905221902 | 82 | 134 | 2.0 | 6.0 | 0.00 | 0.00 | 0.00 | 91 | 1007.5 |
| 20260905221800 | 82 | 86 | 2.0 | 6.0 | 0.00 | 0.00 | 0.00 | 91 | 1007.5 |
| 20260905221659 | 82 | 111 | 2.0 | 6.0 | 0.00 | 0.00 | 0.00 | 91 | 1007.5 |
| 20260905221604 | 82 | 131 | 2.0 | 6.0 | 0.00 | 0.00 | 0.00 | 91 | 1007.5 |
| 20260905221507 | 82 | 112 | 3.0 | 6.0 | 0.00 | 0.00 | 0.00 | 91 | 1007.5 |
| 20260905221403 | 82 | 117 | 2.0 | 4.0 | 0.00 | 0.00 | 0.00 | 91 | 1007.5 |
| 20260905221305 | 82 | 98 | 2.0 | 4.0 | 0.00 | 0.00 | 0.00 | 91 | 1007.5 |
| 20260905221205 | 82 | 119 | 2.0 | 4.0 | 0.00 | 0.00 | 0.00 | 91 | 1007.5 |
| 20260905221059 | 82 | 116 | 2.0 | 4.0 | 0.00 | 0.00 | 0.00 | 91 | 1007.5 |
| 20260905221005 | 82 | 123 | 3.0 | 4.0 | 0.00 | 0.00 | 0.00 | 91 | 1007.5 |
| 20260905220759 | 82 | 80 | 1.0 | 3.0 | 0.00 | 0.00 | 0.00 | 91 | 1007.5 |
| 20260905220702 | 82 | 92 | 1.0 | 4.0 | 0.00 | 0.00 | 0.00 | 91 | 1007.5 |
| 20260905220605 | 82 | 96 | 1.0 | 4.0 | 0.00 | 0.00 | 0.00 | 91 | 1007.5 |
| 20260905220505 | 82 | 64 | 2.0 | 4.0 | 0.00 | 0.00 | 0.00 | 91 | 1007.5 |
| 20260905220407 | 82 | 71 | 2.0 | 5.0 | 0.00 | 0.00 | 0.00 | 91 | 1007.5 |
| 20260905220303 | 82 | 86 | 2.0 | 5.0 | 0.00 | 0.00 | 0.00 | 91 | 1007.5 |
| 20260905220203 | 82 | 90 | 1.0 | 5.0 | 0.00 | 0.00 | 0.00 | 91 | 1007.5 |
| 20260905220104 | 82 | 92 | 1.0 | 5.0 | 0.00 | 0.00 | 0.00 | 91 | 1007.5 |
| 20260905215901 | 82 | 103 | 3.0 | 5.0 | 0.00 | 0.00 | 0.00 | 91 | 1007.6 |
| 20260905215800 | 82 | 101 | 3.0 | 5.0 | 0.00 | 0.00 | 0.00 | 91 | 1007.6 |
| 20260905215700 | 82 | 95 | 3.0 | 5.0 | 0.00 | 0.00 | 0.00 | 91 | 1007.6 |
| 20260905215607 | 82 | 100 | 2.0 | 5.0 | 0.00 | 0.00 | 0.00 | 91 | 1007.5 |
| 20260905215503 | 82 | 90 | 3.0 | 4.0 | 0.00 | 0.00 | 0.00 | 91 | 1007.5 |
| 20260905215401 | 82 | 101 | 2.0 | 4.0 | 0.00 | 0.00 | 0.00 | 91 | 1007.5 |
| 20260905215259 | 82 | 103 | 1.0 | 3.0 | 0.00 | 0.00 | 0.00 | 91 | 1007.6 |
| 20260905215159 | 82 | 116 | 0.0 | 3.0 | 0.00 | 0.00 | 0.00 | 91 | 1007.6 |
| 20260905215059 | 82 | 117 | 0.0 | 3.0 | 0.00 | 0.00 | 0.00 | 91 | 1007.5 |
| 20260905215006 | 82 | 34 | 0.0 | 3.0 | 0.00 | 0.00 | 0.00 | 91 | 1007.6 |
| 20260905214859 | 82 | 34 | 1.0 | 3.0 | 0.00 | 0.00 | 0.00 | 91 | 1007.6 |
| 20260905214703 | 82 | 109 | 1.0 | 3.0 | 0.00 | 0.00 | 0.00 | 91 | 1007.7 |
| 20260905214601 | 82 | 82 | 1.0 | 3.0 | 0.00 | 0.00 | 0.00 | 91 | 1007.7 |
| 20260905214506 | 82 | 90 | 1.0 | 3.0 | 0.00 | 0.00 | 0.00 | 91 | 1007.7 |
| 20260905214402 | 82 | 60 | 1.0 | 4.0 | 0.00 | 0.00 | 0.00 | 91 | 1007.7 |
| 20260905214302 | 82 | 62 | 1.0 | 4.0 | 0.00 | 0.00 | 0.00 | 91 | 1007.7 |
| 20260905214201 | 82 | 142 | 1.0 | 4.0 | 0.00 | 0.00 | 0.00 | 91 | 1007.7 |
| 20260905213858 | 82 | 88 | 2.0 | 4.0 | 0.00 | 0.00 | 0.00 | 91 | 1007.8 |
| 20260905213805 | 82 | 85 | 2.0 | 4.0 | 0.00 | 0.00 | 0.00 | 91 | 1007.8 |
| 20260905213603 | 82 | 74 | 2.0 | 4.0 | 0.00 | 0.00 | 0.00 | 91 | 1007.9 |
| 20260905213505 | 82 | 84 | 2.0 | 4.0 | 0.00 | 0.00 | 0.00 | 91 | 1007.8 |
| 20260905213300 | 82 | 105 | 2.0 | 4.0 | 0.00 | 0.00 | 0.00 | 91 | 1007.8 |
| 20260905213202 | 82 | 96 | 3.0 | 4.0 | 0.00 | 0.00 | 0.00 | 91 | 1008.0 |
| 20260905213058 | 82 | 70 | 2.0 | 4.0 | 0.00 | 0.00 | 0.00 | 91 | 1008.0 |
| 20260905213006 | 82 | 105 | 2.0 | 4.0 | 0.00 | 0.00 | 0.00 | 91 | 1007.9 |
| 20260905212900 | 82 | 65 | 1.0 | 4.0 | 0.00 | 0.00 | 0.00 | 91 | 1008.0 |
| 20260905212802 | 82 | 92 | 0.0 | 4.0 | 0.00 | 0.00 | 0.00 | 91 | 1008.0 |
| 20260905212605 | 82 | 84 | 2.0 | 4.0 | 0.00 | 0.00 | 0.00 | 91 | 1008.0 |
| 20260905212508 | 82 | 67 | 2.0 | 4.0 | 0.00 | 0.00 | 0.00 | 91 | 1007.9 |
| 20260905212405 | 82 | 111 | 2.0 | 4.0 | 0.00 | 0.00 | 0.00 | 90 | 1008.0 |
| 20260905212259 | 82 | 74 | 3.0 | 4.0 | 0.00 | 0.00 | 0.00 | 90 | 1008.0 |
| 20260905212201 | 82 | 77 | 2.0 | 4.0 | 0.00 | 0.00 | 0.00 | 90 | 1008.0 |
| 20260905212100 | 82 | 70 | 2.0 | 4.0 | 0.00 | 0.00 | 0.00 | 90 | 1008.1 |
| 20260905212009 | 82 | 56 | 2.0 | 4.0 | 0.00 | 0.00 | 0.00 | 90 | 1008.0 |
| 20260905211902 | 82 | 55 | 1.0 | 3.0 | 0.00 | 0.00 | 0.00 | 90 | 1008.0 |
| 20260905211803 | 82 | 90 | 1.0 | 3.0 | 0.00 | 0.00 | 0.00 | 90 | 1008.0 |
| 20260905211659 | 82 | 82 | 1.0 | 3.0 | 0.00 | 0.00 | 0.00 | 90 | 1008.0 |
| 20260905211602 | 82 | 96 | 2.0 | 3.0 | 0.00 | 0.00 | 0.00 | 90 | 1008.1 |
| 20260905211502 | 82 | 112 | 1.0 | 3.0 | 0.00 | 0.00 | 0.00 | 90 | 1008.1 |
| 20260905211404 | 82 | 37 | 1.0 | 4.0 | 0.00 | 0.00 | 0.00 | 90 | 1008.2 |
| 20260905211259 | 82 | 72 | 2.0 | 4.0 | 0.00 | 0.00 | 0.00 | 90 | 1008.1 |
| 20260905211203 | 82 | 67 | 2.0 | 4.0 | 0.00 | 0.00 | 0.00 | 90 | 1008.2 |
| 20260905211104 | 82 | 61 | 2.0 | 4.0 | 0.00 | 0.00 | 0.00 | 90 | 1008.2 |
| 20260905211007 | 82 | 103 | 1.0 | 4.0 | 0.00 | 0.00 | 0.00 | 90 | 1008.2 |
| 20260905210901 | 82 | 61 | 0.0 | 4.0 | 0.00 | 0.00 | 0.00 | 90 | 1008.3 |
| 20260905210758 | 82 | 44 | 1.0 | 4.0 | 0.00 | 0.00 | 0.00 | 90 | 1008.2 |
| 20260905210659 | 82 | 44 | 2.0 | 4.0 | 0.00 | 0.00 | 0.00 | 90 | 1008.2 |
| 20260905210602 | 82 | 61 | 3.0 | 4.0 | 0.00 | 0.00 | 0.00 | 90 | 1008.2 |
| 20260905210505 | 82 | 46 | 2.0 | 4.0 | 0.00 | 0.00 | 0.00 | 90 | 1008.2 |
| 20260905210358 | 82 | 78 | 2.0 | 4.0 | 0.00 | 0.00 | 0.00 | 90 | 1008.2 |
| 20260905210303 | 82 | 49 | 1.0 | 4.0 | 0.00 | 0.00 | 0.00 | 90 | 1008.2 |
| 20260905210204 | 82 | 91 | 2.0 | 4.0 | 0.00 | 0.00 | 0.00 | 90 | 1008.2 |
| 20260905210011 | 82 | 39 | 2.0 | 4.0 | 0.00 | 0.00 | 0.00 | 90 | 1008.2 |
| 20260905205901 | 82 | 61 | 2.0 | 4.0 | 0.00 | 0.00 | 0.00 | 90 | 1008.3 |
| 20260905205759 | 82 | 74 | 2.0 | 4.0 | 0.00 | 0.00 | 0.00 | 90 | 1008.3 |
| 20260905205659 | 82 | 61 | 2.0 | 4.0 | 0.00 | 0.00 | 0.00 | 90 | 1008.3 |
| 20260905205558 | 82 | 329 | 2.0 | 4.0 | 0.00 | 0.00 | 0.00 | 90 | 1008.4 |
| 20260905205504 | 82 | 42 | 1.0 | 4.0 | 0.00 | 0.00 | 0.00 | 89 | 1008.3 |
| 20260905205404 | 82 | 63 | 1.0 | 4.0 | 0.00 | 0.00 | 0.00 | 89 | 1008.4 |
| 20260905205306 | 82 | 62 | 2.0 | 4.0 | 0.00 | 0.00 | 0.00 | 89 | 1008.3 |
| 20260905205205 | 82 | 68 | 2.0 | 4.0 | 0.00 | 0.00 | 0.00 | 89 | 1008.4 |
| 20260905205102 | 82 | 55 | 2.0 | 4.0 | 0.00 | 0.00 | 0.00 | 89 | 1008.3 |
| 20260905205004 | 82 | 76 | 2.0 | 4.0 | 0.00 | 0.00 | 0.00 | 89 | 1008.4 |
| 20260905204859 | 82 | 58 | 1.0 | 4.0 | 0.00 | 0.00 | 0.00 | 89 | 1008.4 |
| 20260905204809 | 82 | 76 | 1.0 | 4.0 | 0.00 | 0.00 | 0.00 | 89 | 1008.4 |
| 20260905204704 | 82 | 34 | 0.0 | 4.0 | 0.00 | 0.00 | 0.00 | 89 | 1008.4 |
| 20260905204605 | 82 | 34 | 1.0 | 4.0 | 0.00 | 0.00 | 0.00 | 89 | 1008.4 |
| 20260905204507 | 82 | 34 | 2.0 | 4.0 | 0.00 | 0.00 | 0.00 | 89 | 1008.4 |
| 20260905204206 | 82 | 68 | 2.0 | 4.0 | 0.00 | 0.00 | 0.00 | 89 | 1008.5 |
| 20260905204058 | 82 | 64 | 2.0 | 4.0 | 0.00 | 0.00 | 0.00 | 89 | 1008.5 |
| 20260905204008 | 82 | 84 | 3.0 | 4.0 | 0.00 | 0.00 | 0.00 | 89 | 1008.5 |
| 20260905203803 | 82 | 45 | 3.0 | 4.0 | 0.00 | 0.00 | 0.00 | 89 | 1008.7 |
| 20260905203659 | 82 | 45 | 3.0 | 4.0 | 0.00 | 0.00 | 0.00 | 89 | 1008.8 |
| 20260905203601 | 82 | 45 | 3.0 | 4.0 | 0.00 | 0.00 | 0.00 | 89 | 1008.5 |
| 20260905203544 | 82 | 45 | 3.0 | 4.0 | 0.00 | 0.00 | 0.00 | 89 | 1008.5 |
| 20260905203355 | 82 | 74 | 3.0 | 4.0 | 0.00 | 0.00 | 0.00 | 89 | 1008.6 |
| 20260905143218 | 88 | 60 | 2.0 | 3.0 | 0.00 | 0.00 | 0.00 | 75 | 1007.2 |
| 20260905143058 | 88 | 34 | 2.0 | 3.0 | 0.00 | 0.00 | 0.00 | 75 | 1007.2 |
| 20260905143006 | 88 | 55 | 1.0 | 3.0 | 0.00 | 0.00 | 0.00 | 76 | 1007.2 |
| 20260905142858 | 87 | 360 | 1.0 | 2.0 | 0.00 | 0.00 | 0.00 | 76 | 1007.2 |
| 20260905142759 | 88 | 360 | 1.0 | 2.0 | 0.00 | 0.00 | 0.00 | 76 | 1007.3 |
| 20260905142658 | 87 | 360 | 1.0 | 2.0 | 0.00 | 0.00 | 0.00 | 76 | 1007.2 |
| 20260905142500 | 88 | 360 | 1.0 | 2.0 | 0.00 | 0.00 | 0.00 | 76 | 1007.3 |
| 20260905142306 | 88 | 360 | 0.0 | 2.0 | 0.00 | 0.00 | 0.00 | 76 | 1007.3 |
| 20260905142159 | 88 | 360 | 0.0 | 2.0 | 0.00 | 0.00 | 0.00 | 77 | 1007.3 |
| 20260905142100 | 88 | 360 | 0.0 | 2.0 | 0.00 | 0.00 | 0.00 | 77 | 1007.2 |
| 20260905142007 | 88 | 360 | 1.0 | 2.0 | 0.00 | 0.00 | 0.00 | 77 | 1007.3 |
| 20260905141904 | 88 | 360 | 1.0 | 2.0 | 0.00 | 0.00 | 0.00 | 78 | 1007.3 |
| 20260905141800 | 88 | 360 | 0.0 | 3.0 | 0.00 | 0.00 | 0.00 | 78 | 1007.2 |
| 20260905141657 | 88 | 360 | 0.0 | 3.0 | 0.00 | 0.00 | 0.00 | 78 | 1007.2 |
| 20260905141600 | 88 | 360 | 0.0 | 3.0 | 0.00 | 0.00 | 0.00 | 78 | 1007.3 |
| 20260905141505 | 88 | 360 | 0.0 | 3.0 | 0.00 | 0.00 | 0.00 | 78 | 1007.3 |
| 20260905141402 | 88 | 360 | 1.0 | 3.0 | 0.00 | 0.00 | 0.00 | 79 | 1007.2 |
| 20260905141301 | 88 | 31 | 1.0 | 3.0 | 0.00 | 0.00 | 0.00 | 79 | 1007.2 |
| 20260905141200 | 88 | 338 | 1.0 | 3.0 | 0.00 | 0.00 | 0.00 | 79 | 1007.2 |
| 20260905141058 | 88 | 329 | 1.0 | 3.0 | 0.00 | 0.00 | 0.00 | 78 | 1007.1 |
| 20260905141009 | 88 | 346 | 2.0 | 3.0 | 0.00 | 0.00 | 0.00 | 78 | 1007.2 |
| 20260905140700 | 88 | 346 | 0.0 | 2.0 | 0.00 | 0.00 | 0.00 | 79 | 1007.1 |
| 20260905140558 | 88 | 346 | 0.0 | 2.0 | 0.00 | 0.00 | 0.00 | 79 | 1007.1 |
| 20260905140505 | 88 | 346 | 0.0 | 2.0 | 0.00 | 0.00 | 0.00 | 79 | 1007.1 |
| 20260905140300 | 88 | 346 | 1.0 | 2.0 | 0.00 | 0.00 | 0.00 | 79 | 1007.1 |
| 20260905140103 | 88 | 346 | 0.0 | 3.0 | 0.00 | 0.00 | 0.00 | 79 | 1007.0 |
| 20260905140008 | 88 | 346 | 0.0 | 3.0 | 0.00 | 0.00 | 0.00 | 79 | 1007.0 |
| 20260905135859 | 88 | 346 | 1.0 | 3.0 | 0.00 | 0.00 | 0.00 | 79 | 1007.0 |
| 20260905135701 | 88 | 346 | 1.0 | 3.0 | 0.00 | 0.00 | 0.00 | 79 | 1007.0 |
| 20260905135602 | 88 | 346 | 1.0 | 3.0 | 0.00 | 0.00 | 0.00 | 79 | 1007.1 |
| 20260905135502 | 88 | 346 | 1.0 | 3.0 | 0.00 | 0.00 | 0.00 | 79 | 1006.9 |
| 20260905135301 | 88 | 346 | 1.0 | 3.0 | 0.00 | 0.00 | 0.00 | 79 | 1006.9 |
| 20260905135058 | 88 | 327 | 1.0 | 3.0 | 0.00 | 0.00 | 0.00 | 79 | 1006.9 |
| 20260905134900 | 88 | 327 | 0.0 | 3.0 | 0.00 | 0.00 | 0.00 | 79 | 1006.9 |
| 20260905134758 | 88 | 311 | 1.0 | 3.0 | 0.00 | 0.00 | 0.00 | 79 | 1006.8 |
| 20260905134658 | 88 | 311 | 1.0 | 3.0 | 0.00 | 0.00 | 0.00 | 79 | 1006.8 |
| 20260905134500 | 88 | 322 | 1.0 | 3.0 | 0.00 | 0.00 | 0.00 | 79 | 1006.9 |
| 20260905134304 | 88 | 319 | 2.0 | 3.0 | 0.00 | 0.00 | 0.00 | 78 | 1006.9 |
| 20260905134158 | 88 | 317 | 2.0 | 3.0 | 0.00 | 0.00 | 0.00 | 78 | 1006.9 |
| 20260905134006 | 89 | 304 | 1.0 | 3.0 | 0.00 | 0.00 | 0.00 | 78 | 1006.9 |
| 20260905133900 | 89 | 301 | 1.0 | 3.0 | 0.00 | 0.00 | 0.00 | 78 | 1006.9 |
| 20260905133701 | 89 | 305 | 1.0 | 3.0 | 0.00 | 0.00 | 0.00 | 78 | 1006.9 |
| 20260905133601 | 89 | 305 | 2.0 | 3.0 | 0.00 | 0.00 | 0.00 | 78 | 1006.9 |
| 20260905133503 | 89 | 313 | 2.0 | 3.0 | 0.00 | 0.00 | 0.00 | 78 | 1006.8 |
| 20260905133401 | 89 | 342 | 2.0 | 3.0 | 0.00 | 0.00 | 0.00 | 78 | 1006.8 |
| 20260905133258 | 89 | 304 | 2.0 | 3.0 | 0.00 | 0.00 | 0.00 | 78 | 1006.8 |
| 20260905133200 | 89 | 308 | 2.0 | 3.0 | 0.00 | 0.00 | 0.00 | 78 | 1006.8 |
| 20260905133103 | 89 | 316 | 2.0 | 3.0 | 0.00 | 0.00 | 0.00 | 77 | 1006.8 |
| 20260905133000 | 89 | 321 | 2.0 | 3.0 | 0.00 | 0.00 | 0.00 | 77 | 1006.8 |
| 20260905132900 | 89 | 326 | 1.0 | 3.0 | 0.00 | 0.00 | 0.00 | 78 | 1006.7 |
| 20260905132801 | 89 | 274 | 2.0 | 3.0 | 0.00 | 0.00 | 0.00 | 77 | 1006.8 |
| 20260905132700 | 89 | 305 | 1.0 | 3.0 | 0.00 | 0.00 | 0.00 | 77 | 1006.7 |
| 20260905132603 | 89 | 305 | 1.0 | 3.0 | 0.00 | 0.00 | 0.00 | 77 | 1006.7 |
| 20260905132502 | 89 | 269 | 1.0 | 3.0 | 0.00 | 0.00 | 0.00 | 77 | 1006.7 |
| 20260905132400 | 89 | 271 | 1.0 | 3.0 | 0.00 | 0.00 | 0.00 | 77 | 1006.7 |
| 20260905132300 | 89 | 289 | 1.0 | 3.0 | 0.00 | 0.00 | 0.00 | 77 | 1006.7 |
| 20260905132200 | 89 | 264 | 1.0 | 3.0 | 0.00 | 0.00 | 0.00 | 77 | 1006.6 |
| 20260905132058 | 89 | 273 | 2.0 | 3.0 | 0.00 | 0.00 | 0.00 | 77 | 1006.7 |
| 20260905132004 | 89 | 286 | 2.0 | 3.0 | 0.00 | 0.00 | 0.00 | 76 | 1006.6 |
| 20260905131902 | 89 | 282 | 2.0 | 3.0 | 0.00 | 0.00 | 0.00 | 76 | 1006.6 |
| 20260905131802 | 89 | 271 | 2.0 | 3.0 | 0.00 | 0.00 | 0.00 | 76 | 1006.6 |
| 20260905131701 | 90 | 271 | 2.0 | 3.0 | 0.00 | 0.00 | 0.00 | 76 | 1006.6 |
| 20260905131557 | 90 | 279 | 1.0 | 3.0 | 0.00 | 0.00 | 0.00 | 75 | 1006.7 |
| 20260905131504 | 89 | 279 | 1.0 | 3.0 | 0.00 | 0.00 | 0.00 | 75 | 1006.6 |
| 20260905131400 | 90 | 279 | 2.0 | 3.0 | 0.00 | 0.00 | 0.00 | 75 | 1006.6 |
| 20260905131059 | 90 | 263 | 1.0 | 4.0 | 0.00 | 0.00 | 0.00 | 74 | 1006.6 |
| 20260905131005 | 90 | 263 | 2.0 | 4.0 | 0.00 | 0.00 | 0.00 | 74 | 1006.6 |
| 20260905130900 | 90 | 259 | 2.0 | 4.0 | 0.00 | 0.00 | 0.00 | 74 | 1006.4 |
| 20260905130801 | 90 | 257 | 1.0 | 4.0 | 0.00 | 0.00 | 0.00 | 74 | 1006.5 |
| 20260905130702 | 90 | 277 | 1.0 | 4.0 | 0.00 | 0.00 | 0.00 | 74 | 1006.5 |
| 20260905130559 | 90 | 277 | 1.0 | 4.0 | 0.00 | 0.00 | 0.00 | 74 | 1006.5 |
| 20260905130503 | 90 | 248 | 1.0 | 4.0 | 0.00 | 0.00 | 0.00 | 74 | 1006.4 |
| 20260905130400 | 90 | 238 | 1.0 | 4.0 | 0.00 | 0.00 | 0.00 | 74 | 1006.5 |
| 20260905130300 | 90 | 244 | 1.0 | 4.0 | 0.00 | 0.00 | 0.00 | 74 | 1006.4 |
| 20260905130159 | 90 | 236 | 2.0 | 4.0 | 0.00 | 0.00 | 0.00 | 74 | 1006.4 |
| 20260905130100 | 90 | 252 | 2.0 | 4.0 | 0.00 | 0.00 | 0.00 | 74 | 1006.4 |
| 20260905125900 | 90 | 228 | 2.0 | 4.0 | 0.00 | 0.00 | 0.00 | 73 | 1006.3 |
| 20260905125800 | 90 | 210 | 2.0 | 4.0 | 0.00 | 0.00 | 0.00 | 73 | 1006.3 |
| 20260905125657 | 90 | 240 | 2.0 | 4.0 | 0.00 | 0.00 | 0.00 | 73 | 1006.4 |
| 20260905125600 | 90 | 237 | 1.0 | 4.0 | 0.00 | 0.00 | 0.00 | 73 | 1006.3 |
| 20260905125502 | 90 | 223 | 1.0 | 6.0 | 0.00 | 0.00 | 0.00 | 73 | 1006.3 |
| 20260905125403 | 90 | 247 | 1.0 | 6.0 | 0.00 | 0.00 | 0.00 | 73 | 1006.3 |
| 20260905125258 | 90 | 225 | 2.0 | 6.0 | 0.00 | 0.00 | 0.00 | 73 | 1006.3 |
| 20260905125200 | 90 | 256 | 2.0 | 6.0 | 0.00 | 0.00 | 0.00 | 73 | 1006.2 |
| 20260905125058 | 90 | 250 | 2.0 | 6.0 | 0.00 | 0.00 | 0.00 | 73 | 1006.2 |
| 20260905125004 | 90 | 267 | 2.0 | 6.0 | 0.00 | 0.00 | 0.00 | 73 | 1006.2 |
| 20260905124901 | 90 | 260 | 2.0 | 6.0 | 0.00 | 0.00 | 0.00 | 72 | 1006.2 |
| 20260905124701 | 90 | 248 | 4.0 | 6.0 | 0.00 | 0.00 | 0.00 | 72 | 1006.2 |
| 20260905124559 | 90 | 261 | 3.0 | 6.0 | 0.00 | 0.00 | 0.00 | 72 | 1006.2 |
| 20260905124502 | 91 | 256 | 3.0 | 4.0 | 0.00 | 0.00 | 0.00 | 72 | 1006.2 |
| 20260905124157 | 91 | 220 | 2.0 | 4.0 | 0.00 | 0.00 | 0.00 | 71 | 1006.1 |
| 20260905124058 | 91 | 242 | 2.0 | 4.0 | 0.00 | 0.00 | 0.00 | 71 | 1006.1 |
| 20260905124005 | 91 | 256 | 2.0 | 4.0 | 0.00 | 0.00 | 0.00 | 71 | 1006.1 |
| 20260905123900 | 91 | 296 | 1.0 | 4.0 | 0.00 | 0.00 | 0.00 | 71 | 1006.1 |
| 20260905123601 | 91 | 267 | 2.0 | 4.0 | 0.00 | 0.00 | 0.00 | 71 | 1006.1 |
| 20260905123504 | 91 | 252 | 2.0 | 4.0 | 0.00 | 0.00 | 0.00 | 71 | 1006.2 |
| 20260905123358 | 91 | 257 | 3.0 | 4.0 | 0.00 | 0.00 | 0.00 | 71 | 1006.2 |
| 20260905123257 | 91 | 263 | 3.0 | 4.0 | 0.00 | 0.00 | 0.00 | 71 | 1006.1 |
| 20260905123157 | 91 | 259 | 2.0 | 4.0 | 0.00 | 0.00 | 0.00 | 71 | 1006.2 |
| 20260905123058 | 91 | 259 | 2.0 | 5.0 | 0.00 | 0.00 | 0.00 | 71 | 1006.1 |
| 20260905123004 | 91 | 261 | 2.0 | 5.0 | 0.00 | 0.00 | 0.00 | 71 | 1006.1 |
| 20260905122859 | 91 | 261 | 2.0 | 5.0 | 0.00 | 0.00 | 0.00 | 71 | 1006.1 |
| 20260905122802 | 91 | 259 | 2.0 | 5.0 | 0.00 | 0.00 | 0.00 | 71 | 1006.1 |
| 20260905122557 | 91 | 244 | 2.0 | 5.0 | 0.00 | 0.00 | 0.00 | 71 | 1006.1 |
| 20260905122500 | 91 | 216 | 2.0 | 5.0 | 0.00 | 0.00 | 0.00 | 70 | 1006.1 |
| 20260905122358 | 91 | 207 | 3.0 | 5.0 | 0.00 | 0.00 | 0.00 | 70 | 1006.1 |
| 20260905122301 | 91 | 261 | 3.0 | 5.0 | 0.00 | 0.00 | 0.00 | 70 | 1006.1 |
| 20260905122204 | 91 | 244 | 3.0 | 6.0 | 0.00 | 0.00 | 0.00 | 70 | 1006.2 |
| 20260905122103 | 91 | 242 | 3.0 | 7.0 | 0.00 | 0.00 | 0.00 | 70 | 1006.1 |
| 20260905122007 | 91 | 205 | 2.0 | 7.0 | 0.00 | 0.00 | 0.00 | 70 | 1006.2 |
| 20260905121900 | 91 | 221 | 2.0 | 7.0 | 0.00 | 0.00 | 0.00 | 70 | 1006.2 |
| 20260905121703 | 92 | 251 | 3.0 | 7.0 | 0.00 | 0.00 | 0.00 | 70 | 1006.2 |
| 20260905121602 | 92 | 259 | 2.0 | 7.0 | 0.00 | 0.00 | 0.00 | 70 | 1006.2 |
| 20260905121358 | 92 | 238 | 4.0 | 7.0 | 0.00 | 0.00 | 0.00 | 69 | 1006.2 |
| 20260905121202 | 92 | 239 | 2.0 | 5.0 | 0.00 | 0.00 | 0.00 | 70 | 1006.3 |
| 20260905121057 | 92 | 236 | 1.0 | 5.0 | 0.00 | 0.00 | 0.00 | 70 | 1006.2 |
| 20260905121006 | 92 | 252 | 1.0 | 5.0 | 0.00 | 0.00 | 0.00 | 70 | 1006.2 |
| 20260905120858 | 92 | 224 | 2.0 | 5.0 | 0.00 | 0.00 | 0.00 | 70 | 1006.1 |
| 20260905120759 | 92 | 223 | 3.0 | 5.0 | 0.00 | 0.00 | 0.00 | 70 | 1006.1 |
| 20260905120701 | 92 | 203 | 3.0 | 5.0 | 0.00 | 0.00 | 0.00 | 70 | 1006.1 |
| 20260905120602 | 92 | 229 | 3.0 | 5.0 | 0.00 | 0.00 | 0.00 | 70 | 1006.1 |
| 20260905120505 | 92 | 231 | 2.0 | 5.0 | 0.00 | 0.00 | 0.00 | 70 | 1006.0 |
| 20260905120401 | 92 | 232 | 2.0 | 5.0 | 0.00 | 0.00 | 0.00 | 70 | 1006.0 |
| 20260905120302 | 92 | 198 | 2.0 | 5.0 | 0.00 | 0.00 | 0.00 | 70 | 1006.0 |
| 20260905120157 | 92 | 198 | 1.0 | 5.0 | 0.00 | 0.00 | 0.00 | 70 | 1006.0 |
| 20260905120100 | 92 | 209 | 2.0 | 5.0 | 0.00 | 0.00 | 0.00 | 69 | 1006.0 |
| 20260905120007 | 92 | 269 | 3.0 | 5.0 | 0.00 | 0.00 | 0.00 | 69 | 1006.0 |
| 20260905115902 | 92 | 242 | 3.0 | 5.0 | 0.00 | 0.00 | 0.00 | 69 | 1006.0 |
| 20260905115703 | 92 | 234 | 3.0 | 5.0 | 0.00 | 0.00 | 0.00 | 70 | 1006.0 |
| 20260905115557 | 92 | 244 | 2.0 | 4.0 | 0.00 | 0.00 | 0.00 | 70 | 1006.1 |
| 20260905115359 | 92 | 252 | 2.0 | 4.0 | 0.00 | 0.00 | 0.00 | 69 | 1006.0 |
| 20260905115300 | 92 | 238 | 2.0 | 5.0 | 0.00 | 0.00 | 0.00 | 69 | 1006.0 |
| 20260905115201 | 92 | 241 | 2.0 | 5.0 | 0.00 | 0.00 | 0.00 | 70 | 1006.0 |
| 20260905115001 | 92 | 219 | 1.0 | 5.0 | 0.00 | 0.00 | 0.00 | 70 | 1005.9 |
| 20260905114900 | 92 | 186 | 0.0 | 5.0 | 0.00 | 0.00 | 0.00 | 70 | 1006.0 |
| 20260905114757 | 92 | 227 | 1.0 | 5.0 | 0.00 | 0.00 | 0.00 | 70 | 1006.0 |
| 20260905114659 | 92 | 227 | 2.0 | 5.0 | 0.00 | 0.00 | 0.00 | 70 | 1006.0 |
| 20260905114557 | 92 | 286 | 2.0 | 7.0 | 0.00 | 0.00 | 0.00 | 69 | 1006.0 |
| 20260905114503 | 92 | 242 | 2.0 | 7.0 | 0.00 | 0.00 | 0.00 | 69 | 1006.0 |
| 20260905114402 | 92 | 206 | 1.0 | 7.0 | 0.00 | 0.00 | 0.00 | 69 | 1006.0 |
| 20260905114300 | 92 | 258 | 3.0 | 8.0 | 0.00 | 0.00 | 0.00 | 69 | 1005.9 |
| 20260905114058 | 92 | 189 | 3.0 | 8.0 | 0.00 | 0.00 | 0.00 | 69 | 1005.9 |
| 20260905114005 | 92 | 191 | 3.0 | 8.0 | 0.00 | 0.00 | 0.00 | 69 | 1005.9 |
| 20260905113900 | 92 | 224 | 4.0 | 8.0 | 0.00 | 0.00 | 0.00 | 69 | 1005.9 |
| 20260905113803 | 92 | 207 | 4.0 | 8.0 | 0.00 | 0.00 | 0.00 | 69 | 1005.8 |
| 20260905113701 | 92 | 213 | 4.0 | 8.0 | 0.00 | 0.00 | 0.00 | 69 | 1005.9 |
| 20260905113603 | 92 | 191 | 5.0 | 8.0 | 0.00 | 0.00 | 0.00 | 69 | 1006.0 |
| 20260905113502 | 92 | 203 | 4.0 | 8.0 | 0.00 | 0.00 | 0.00 | 69 | 1005.9 |
| 20260905113401 | 92 | 236 | 2.0 | 5.0 | 0.00 | 0.00 | 0.00 | 69 | 1005.9 |
| 20260905113257 | 92 | 244 | 2.0 | 5.0 | 0.00 | 0.00 | 0.00 | 69 | 1005.8 |
| 20260905113158 | 92 | 259 | 3.0 | 5.0 | 0.00 | 0.00 | 0.00 | 69 | 1005.9 |
| 20260905113019 | 92 | 196 | 2.0 | 5.0 | 0.00 | 0.00 | 0.00 | 69 | 1005.9 |
| 20260905112757 | 92 | 221 | 2.0 | 7.0 | 0.00 | 0.00 | 0.00 | 70 | 1005.9 |
| 20260905112700 | 92 | 263 | 1.0 | 7.0 | 0.00 | 0.00 | 0.00 | 69 | 1006.0 |
| 20260905112403 | 92 | 244 | 2.0 | 7.0 | 0.00 | 0.00 | 0.00 | 69 | 1006.0 |
| 20260905112305 | 92 | 265 | 2.0 | 7.0 | 0.00 | 0.00 | 0.00 | 69 | 1006.0 |
| 20260905112200 | 92 | 249 | 2.0 | 7.0 | 0.00 | 0.00 | 0.00 | 69 | 1006.0 |
| 20260905112106 | 92 | 261 | 3.0 | 7.0 | 0.00 | 0.00 | 0.00 | 69 | 1005.9 |
| 20260905112010 | 92 | 207 | 2.0 | 7.0 | 0.00 | 0.00 | 0.00 | 70 | 1005.9 |
| 20260905111802 | 92 | 224 | 4.0 | 7.0 | 0.00 | 0.00 | 0.00 | 69 | 1006.0 |
| 20260905111702 | 92 | 223 | 4.0 | 7.0 | 0.00 | 0.00 | 0.00 | 69 | 1006.0 |
| 20260905111558 | 92 | 192 | 5.0 | 7.0 | 0.00 | 0.00 | 0.00 | 69 | 1006.0 |
| 20260905111503 | 92 | 211 | 5.0 | 7.0 | 0.00 | 0.00 | 0.00 | 69 | 1006.0 |
| 20260905111357 | 92 | 214 | 4.0 | 8.0 | 0.00 | 0.00 | 0.00 | 69 | 1006.0 |
| 20260905111257 | 92 | 196 | 4.0 | 8.0 | 0.00 | 0.00 | 0.00 | 69 | 1006.0 |
| 20260905111202 | 92 | 253 | 4.0 | 8.0 | 0.00 | 0.00 | 0.00 | 69 | 1006.1 |
| 20260905111059 | 92 | 250 | 4.0 | 6.0 | 0.00 | 0.00 | 0.00 | 69 | 1006.1 |
| 20260905111007 | 92 | 240 | 3.0 | 6.0 | 0.00 | 0.00 | 0.00 | 69 | 1006.1 |
| 20260905110903 | 92 | 224 | 3.0 | 7.0 | 0.00 | 0.00 | 0.00 | 69 | 1006.1 |
| 20260905110757 | 92 | 234 | 3.0 | 7.0 | 0.00 | 0.00 | 0.00 | 69 | 1006.2 |
| 20260905110703 | 92 | 236 | 4.0 | 5.0 | 0.00 | 0.00 | 0.00 | 69 | 1006.1 |
| 20260905110557 | 92 | 255 | 3.0 | 5.0 | 0.00 | 0.00 | 0.00 | 69 | 1006.2 |
| 20260905110201 | 92 | 221 | 3.0 | 6.0 | 0.00 | 0.00 | 0.00 | 69 | 1006.2 |
| 20260905110011 | 92 | 207 | 2.0 | 6.0 | 0.00 | 0.00 | 0.00 | 70 | 1006.1 |
| 20260905105856 | 92 | 265 | 1.0 | 8.0 | 0.00 | 0.00 | 0.00 | 69 | 1006.2 |
| 20260905105802 | 92 | 252 | 2.0 | 8.0 | 0.00 | 0.00 | 0.00 | 69 | 1006.2 |
| 20260905105656 | 92 | 269 | 3.0 | 8.0 | 0.00 | 0.00 | 0.00 | 69 | 1006.2 |
| 20260905105504 | 92 | 243 | 3.0 | 8.0 | 0.00 | 0.00 | 0.00 | 70 | 1006.2 |
| 20260905105258 | 92 | 262 | 2.0 | 8.0 | 0.00 | 0.00 | 0.00 | 69 | 1006.3 |
| 20260905105201 | 92 | 273 | 4.0 | 8.0 | 0.00 | 0.00 | 0.00 | 69 | 1006.2 |
| 20260905105105 | 92 | 270 | 5.0 | 8.0 | 0.00 | 0.00 | 0.00 | 68 | 1006.2 |
| 20260905105002 | 92 | 301 | 4.0 | 8.0 | 0.00 | 0.00 | 0.00 | 69 | 1006.3 |
| 20260905104901 | 92 | 262 | 4.0 | 8.0 | 0.00 | 0.00 | 0.00 | 69 | 1006.3 |
| 20260905104702 | 92 | 312 | 3.0 | 8.0 | 0.00 | 0.00 | 0.00 | 68 | 1006.3 |
| 20260905104602 | 92 | 284 | 3.0 | 8.0 | 0.00 | 0.00 | 0.00 | 68 | 1006.2 |
| 20260905104402 | 92 | 273 | 5.0 | 8.0 | 0.00 | 0.00 | 0.00 | 68 | 1006.2 |
| 20260905104258 | 92 | 253 | 4.0 | 8.0 | 0.00 | 0.00 | 0.00 | 68 | 1006.2 |
| 20260905104157 | 92 | 267 | 3.0 | 8.0 | 0.00 | 0.00 | 0.00 | 68 | 1006.2 |
| 20260905104058 | 92 | 269 | 3.0 | 7.0 | 0.00 | 0.00 | 0.00 | 68 | 1006.2 |
| 20260905104010 | 92 | 292 | 4.0 | 7.0 | 0.00 | 0.00 | 0.00 | 68 | 1006.4 |
| 20260905103859 | 92 | 288 | 3.0 | 7.0 | 0.00 | 0.00 | 0.00 | 68 | 1006.4 |
| 20260905103800 | 92 | 273 | 3.0 | 7.0 | 0.00 | 0.00 | 0.00 | 68 | 1006.3 |
| 20260905103709 | 92 | 279 | 3.0 | 7.0 | 0.00 | 0.00 | 0.00 | 68 | 1006.3 |
| 20260905103602 | 92 | 268 | 2.0 | 7.0 | 0.00 | 0.00 | 0.00 | 68 | 1006.4 |
| 20260905103502 | 92 | 243 | 3.0 | 7.0 | 0.00 | 0.00 | 0.00 | 68 | 1006.4 |
| 20260905103356 | 92 | 262 | 3.0 | 7.0 | 0.00 | 0.00 | 0.00 | 68 | 1006.4 |
| 20260905103259 | 92 | 263 | 3.0 | 7.0 | 0.00 | 0.00 | 0.00 | 68 | 1006.5 |
| 20260905103159 | 92 | 254 | 3.0 | 7.0 | 0.00 | 0.00 | 0.00 | 67 | 1006.6 |
| 20260905103057 | 92 | 244 | 4.0 | 7.0 | 0.00 | 0.00 | 0.00 | 68 | 1006.7 |
| 20260905103009 | 92 | 243 | 4.0 | 7.0 | 0.00 | 0.00 | 0.00 | 68 | 1006.6 |
| 20260905102900 | 92 | 245 | 4.0 | 8.0 | 0.00 | 0.00 | 0.00 | 67 | 1006.6 |
| 20260905102700 | 92 | 252 | 6.0 | 8.0 | 0.00 | 0.00 | 0.00 | 67 | 1006.5 |
| 20260905102556 | 92 | 304 | 5.0 | 8.0 | 0.00 | 0.00 | 0.00 | 66 | 1006.4 |
| 20260905102513 | 92 | 309 | 4.0 | 8.0 | 0.00 | 0.00 | 0.00 | 66 | 1006.4 |